#timestamp,LO_Frequency,Hit,StdDev 
1515049215.6,286046999.7,N
1515049235.5,286047002.7,N
1515049255.3,286046999.8,N
1515049275.1,286047000.4,N
1515049295.9,286047000.1,N
1515049315.7,286047001.0,N
1515049335.5,286046998.6,N
1515049355.7,286046998.3,N
1515049375.5,286046998.4,N
1515049395.3,286046999.3,N
1515049415.2,286046999.0,N
1515049435.0,286046995.0,Y
1515049435.9,286046995.0,P
1515049455.8,286046997.6,N
1515049475.6,286046997.2,N
1515049495.4,286046997.3,N
1515049515.3,286046995.3,N
1515049535.1,286046997.4,N
1515049555.8,286046996.8,N
1515049575.7,286046997.3,N
1515049595.5,286046994.9,Y
1515049615.4,286046998.9,P
1515049635.2,286046998.9,N
1515049655.0,286046998.7,N
1515049655.9,286046998.7,N
1515049675.8,286046998.6,N
1515049695.6,286046998.5,N
1515049715.4,286047000.9,N
1515049735.3,286046998.3,N
1515049755.1,286047001.0,N
1515049775.9,286047000.0,N
1515049795.7,286047000.5,N
1515049815.5,286047000.5,N
1515049835.4,286047002.4,N
1515049855.2,286047000.2,N
1515049875.1,286047000.8,N
1515049876.0,286047000.8,N
1515049895.8,286047000.4,N
1515049915.6,286047000.5,N
1515049935.5,286047001.0,N
1515049955.3,286047001.2,N
1515049975.1,286047001.1,N
1515049995.9,286046998.1,N
1515050015.7,286046999.5,N
1515050035.6,286046997.0,N
1515050055.4,286046999.5,N
1515050075.2,286046998.4,N
1515050095.1,286047000.8,N
1515050096.0,286047000.8,N
1515050115.8,286046998.1,N
1515050135.6,286046998.5,N
1515050155.5,286046998.4,N
1515050175.3,286046998.4,N
1515050195.2,286046998.3,N
1515050215.0,286046999.1,N
1515050215.9,286046999.1,N
1515050235.8,286046998.9,N
1515050255.6,286046999.3,N
1515050275.4,286046999.4,N
1515050295.3,286046998.8,N
1515050315.1,286046999.1,N
1515050335.8,286046996.6,N
1515050355.7,286046999.3,N
1515050375.5,286046996.6,N
1515050395.4,286046997.7,N
1515050415.2,286046999.1,N
1515050435.0,286046999.0,N
1515050435.9,286046999.0,N
1515050455.8,286046999.1,N
1515050475.6,286046997.1,N
1515050495.4,286046997.9,N
1515050515.3,286046997.4,N
1515050535.1,286046997.6,N
1515050555.9,286046997.5,N
1515050575.7,286046997.2,N
1515050595.5,286046999.6,N
1515050615.4,286046996.7,Y
1515050635.2,286046996.6,P
1515050655.0,286046997.0,P
1515050656.0,286046997.0,P
1515050675.8,286046997.5,Y
1515050695.6,286046999.3,P
1515050715.0,286046997.1,N
1515050715.9,286046997.1,N
1515050735.8,286046999.4,N
1515050755.6,286046998.5,N
1515050775.4,286046996.5,Y
1515050795.3,286047000.2,P
1515050815.1,286047000.6,N
1515050835.9,286047000.2,N
1515050855.7,286046998.6,N
1515050875.5,286046998.7,N
1515050895.4,286047002.8,N
1515050915.2,286047000.2,N
1515050935.1,286046998.5,N
1515050936.0,286046998.5,N
1515050955.8,286047000.5,N
1515050975.6,286047000.9,N
1515050995.5,286046998.3,N
1515051015.3,286046999.6,N
1515051035.1,286046998.4,N
1515051055.9,286047000.6,N
1515051075.7,286047000.3,N
1515051095.6,286047002.3,N
1515051115.4,286047000.1,N
1515051135.2,286046999.7,N
1515051155.1,286046999.7,N
1515051156.0,286046999.7,N
1515051175.8,286047001.1,N
1515051195.6,286046999.0,N
1515051215.5,286046996.6,N
1515051235.3,286046996.8,N
1515051255.2,286046997.2,N
1515051275.9,286046997.1,N
1515051295.7,286046995.5,N
1515051315.6,286046998.0,N
1515051335.4,286046996.8,N
1515051355.2,286046997.4,N
1515051375.1,286046997.4,N
1515051376.0,286046997.4,N
1515051395.8,286046997.2,N
1515051415.7,286046999.5,N
1515051435.5,286046997.0,N
1515051455.3,286046997.8,N
1515051475.2,286046994.9,Y
1515051495.0,286046998.6,P
1515051495.9,286046998.6,P
1515051515.8,286047000.0,N
1515051535.6,286046998.4,N
1515051555.4,286047001.2,N
1515051575.3,286047000.7,N
1515051595.1,286046999.1,N
1515051615.8,286046996.7,Y
1515051635.7,286046999.5,P
1515051655.5,286046999.5,P
1515051675.4,286046998.4,P
1515051695.2,286046998.4,Y
1515051715.0,286047000.2,P
1515051715.9,286047000.2,N
1515051735.8,286047000.8,N
1515051755.6,286047001.2,N
1515051775.5,286047001.2,N
1515051795.3,286047000.6,N
1515051815.1,286047000.0,N
1515051835.9,286047002.7,Y
1515051855.7,286047002.3,P
1515051875.5,286047004.4,P
1515051925.4,286047001.5,E
1515051935.3,286047002.7,N
1515051955.2,286046999.9,P
1515051975.0,286047000.2,N
1515051975.9,286047000.2,N
1515051995.8,286047000.5,N
1515052015.6,286047000.5,N
1515052035.4,286047000.7,N
1515052055.3,286047000.3,N
1515052075.1,286047001.0,N
1515052095.9,286047004.0,Y
1515052115.7,286047001.5,P
1515052135.5,286047004.0,P
1515052155.4,286047005.7,P
1515052175.2,286047005.2,N
1515052195.0,286047005.9,N
1515052195.9,286047005.9,N
1515052215.8,286047002.2,N
1515052235.6,286047000.1,N
1515052255.5,286047000.0,N
1515052275.3,286047002.5,N
1515052295.1,286047001.5,N
1515052315.9,286047002.7,N
1515052335.7,286047002.0,N
1515052355.5,286047001.5,N
1515052375.4,286047000.1,N
1515052395.2,286047002.5,N
1515052415.1,286047001.8,N
1515052416.0,286047001.8,N
1515052435.8,286047002.3,N
1515052455.6,286047000.1,N
1515052475.5,286047000.7,N
1515052495.3,286047001.1,N
1515052515.2,286047000.1,N
1515052535.9,286047000.5,N
1515052555.7,286047001.1,N
1515052575.6,286047000.7,N
1515052595.4,286046998.1,N
1515052615.2,286046998.5,N
1515052635.1,286046998.4,N
1515052636.0,286046998.4,N
1515052655.8,286046998.3,N
1515052675.7,286047000.8,N
1515052695.5,286047002.7,N
1515052715.3,286047002.6,N
1515052735.2,286047002.5,N
1515052755.9,286047002.7,N
1515052775.7,286047002.8,N
1515052795.6,286046999.7,N
